From 146 observations 1998 Dec. 15-1999 Mar. 16, mean residual 0".52.



    P/1998 X1 (ODAS) 

T 1998 July 20.90590 TT                                 Nakano

q   1.9750237            (2000.0)            P               Q

n   0.14575595     Peri.   68.82371     +0.38014971     -0.92492485

a   3.5758985      Node   358.83301     +0.83960754     +0.34530170

e   0.4476846      Incl.    1.35240     +0.38800177     +0.15899927

P   6.76

From 130 observations 1998 Dec. 15-1999 Feb. 16.





    P/1998 X1 (ODAS) 

T 1998 July 20.85716 TT                                 Nakano

q   1.9752955            (2000.0)            P               Q

n   0.14594537     Peri.   68.83402     +0.38017029     -0.92491638

a   3.5728038      Node   358.82142     +0.83959774     +0.34532171

e   0.4471302      Incl.    1.35261     +0.38800281     +0.15900503

P   6.75

From 100 observations 1998 Dec. 15-1999 Jan. 26.



◎C/1998 X1の軌道と予報位置です



 この彗星もまた,予想されたとおり,短周期彗星の1つでした.



    C/1998 X1 (ODAS) 

T 1998 July 20.74958 TT                                 Nakano

q   1.9759603            (2000.0)            P               Q

n   0.14627159     Peri.   68.85253     +0.38017320     -0.92491518

a   3.5674897      Node   358.80272     +0.83959263     +0.34532627

e   0.4461203      Incl.    1.35303     +0.38801103     +0.15900213

P   6.74

From 97 observations 1998 Dec. 15-1999 Jan. 21.



 

Date/        TT  R.A.(2000) Decl.     Delta   r     Daily motion  Mag.  Moon Age

              h    h  m       。  ,                      ,  / PA 。  m1      。

1999 Jan. 25 14  09 47.18  +14 55.7   1.510  2.462    12.3 / 288  18.3   99  .59

          26 14  09 46.38  +14 59.5   1.510  2.466    12.5 / 288  18.3   84  .70

          27 14  09 45.56  +15 03.3   1.510  2.471    12.6 / 288  18.3   70  .80

          28 14  09 44.73  +15 07.2   1.511  2.475    12.8 / 288  18.3   55  .88

          29 14  09 43.89  +15 11.0   1.512  2.479    12.9 / 288  18.3   41  .95

          30 14  09 43.04  +15 14.9   1.513  2.483    13.0 / 287  18.3   27  .99

          31 14  09 42.18  +15 18.8   1.515  2.488    13.1 / 287  18.4   13 1.00

     Feb.  1 14  09 41.31  +15 22.7   1.516  2.492    13.2 / 287  18.4    2  .99

           2 14  09 40.44  +15 26.6   1.518  2.496    13.3 / 287  18.4   14  .96

           3 14  09 39.56  +15 30.5   1.521  2.501    13.3 / 287  18.4   28  .91

           4 14  09 38.68  +15 34.4   1.523  2.505    13.4 / 287  18.4   40  .84

           5 14  09 37.79  +15 38.2   1.526  2.509    13.4 / 287  18.4   53  .76

           6 14  09 36.90  +15 42.1   1.529  2.513    13.4 / 287  18.4   65  .68

           7 14  09 36.02  +15 45.9   1.532  2.518    13.3 / 286  18.4   77  .59

           8 14  09 35.13  +15 49.7   1.536  2.522    13.3 / 286  18.4   89  .49

           9 14  09 34.25  +15 53.4   1.540  2.526    13.2 / 286  18.5  101  .40

          10 14  09 33.37  +15 57.1   1.544  2.531    13.1 / 286  18.5  113  .31

          11 14  09 32.49  +16 00.8   1.549  2.535    13.0 / 286  18.5  126  .22

          12 14  09 31.62  +16 04.3   1.554  2.540    12.9 / 286  18.5  138  .15

          13 14  09 30.76  +16 07.9   1.559  2.544    12.8 / 286  18.5  151  .08

          14 14  09 29.90  +16 11.3   1.564  2.548    12.6 / 286  18.5  164  .03

          15 14  09 29.06  +16 14.7   1.570  2.553    12.5 / 285  18.5  178  .01

          16 14  09 28.22  +16 18.0   1.575  2.557    12.3 / 285  18.6  168  .00

          17 14  09 27.40  +16 21.3   1.582  2.561    12.1 / 285  18.6  154  .02

          18 14  09 26.59  +16 24.4   1.588  2.566    11.9 / 285  18.6  139  .07

          19 14  09 25.79  +16 27.5   1.595  2.570    11.6 / 285  18.6  125  .14

          20 14  09 25.01  +16 30.5   1.602  2.575    11.4 / 285  18.6  111  .22

          21 14  09 24.24  +16 33.3   1.609  2.579    11.1 / 285  18.6   96  .33

          22 14  09 23.49  +16 36.1   1.617  2.583    10.9 / 284  18.7   82  .44

          23 14  09 22.75  +16 38.8   1.624  2.588    10.6 / 284  18.7   67  .55

          24 14  09 22.04  +16 41.4   1.632  2.592    10.3 / 284  18.7   53  .66

          25 14  09 21.34  +16 43.9   1.641  2.597    10.0 / 284  18.7   39  .76

          26 14  09 20.67  +16 46.3   1.649  2.601     9.7 / 284  18.7   25  .85

          27 14  09 20.01  +16 48.5   1.658  2.605     9.4 / 283  18.8   12  .92

          28 14  09 19.37  +16 50.7   1.667  2.610     9.1 / 283  18.8    2  .97

     Mar.  1 14  09 18.76  +16 52.8   1.677  2.614     8.7 / 283  18.8   15  .99

NAKANO

         **** Don't distribute anyone except personal use only ****

                (C) Copyright 1999 OAA/ComputingSection

write mail from CFAD0::NAKANO on 1999-01-25 20:16:46(JST).



    C/1998 X1 (ODAS) 

T 1998 July 18.59629 TT                                 Nakano

q   1.9853743            (2000.0)            P               Q

n   0.15370276     Peri.   68.98946     +0.38292000     -0.92378130

a   3.4515561      Node   358.49544     +0.83850634     +0.34785498

e   0.4247886      Incl.    1.35847     +0.38765886     +0.16007820

P   6.41

From 70 observations 1998 Dec. 15-27.



戻ります。